SL-3 R/B

Satellite information

Favourite Embed

Satellite Type and Status

ROCKET BODYIN ORBIT

Key statistics

Satellite SL-3 R/B at a glance.

Uptime

17532

Days in orbit

Revolutions

≈ 14.1

Per day

Orbit

LEO

Low Earth Orbit

Inclination

81.2

Latest

Satellite identification and parameters

Extended collection of information and parameters for SL-3 R/B.

Object identification

Identified? True

Debris? False

Object name: SL-3 R/B

International designator: 1977-117B

Object number (NORAD): 10515

Object ID (CCSDS): 10515

Country: COMMONWEALTH OF INDEPENDENT STATES (CIS)

Current information (Y/N): Y

RCS size: LARGE

Orbital parameters

Period: 102.193 minutes

Inclination: 81.2448 deg

SMA: 7240.615 km

Apoapsis: 884.05 km

Periapsis: 840.909 km

RAAN: 145.8554 deg

Eccentricy: 0.00297909

Argument of periapsis: 136.0583 deg

Mean anomaly: 224.2964 deg

Mean motion: 14.09092796 rev/day

Mean motion (dot): 0.00000069 rev/day2

B* drag term: 0.000032035452 1/REarth

Two-line elements (TLE)

Creation date: Dec. 14, 2025, 3:07 a.m.

Reference frame: TEME

Reference center: EARTH

Epoch: Dec. 13, 2025, 12:45 p.m. UTC

TLE line 0: 0 SL-3 R/B

TLE line 1: 1 10515U 77117B 25347.53180180 .00000069 00000-0 32035-4 0 9994

TLE line 2: 2 10515 81.2448 145.8554 0029791 136.0583 224.2964 14.09092796466212

Live tracking on map

Real-time ground track for satellite SL-3 R/B.

In-orbit conjunctions

A list of the most updated potential collisions computed for object SL-3 R/B.

Target Orbit TCA Probability of collision Miss distance Type
FENGYUN 1C DEB SSO 2025-11-09 21:31:47 0.0005046357 184.0 (m) DEBRIS
COSMOS 1275 DEB LEO 2025-10-08 10:40:08 0.0003167583 181.0 (m) DEBRIS
COSMOS 2251 DEB LEO 2025-06-25 09:57:46 0.0007604906 100.0 (m) DEBRIS
SL-16 DEB LEO 2025-04-15 20:50:22 0.0001063696 217.0 (m) DEBRIS
FENGYUN 1C DEB SSO 2024-11-08 04:44:47 0.0001103654 205.0 (m) DEBRIS

Associated space launch

Second generation soviet meteorological satellite

SL-3 R/B was lifted into orbit during the mission ‘Vostok 8A92M | Meteor-2 3’, on board a Vostok 8A92M space rocket.

The launch took place on Dec. 14, 1977, 9:30 a.m. from 43/4 (43R).

For more information about the launch, click the button.

Launch to space Vostok 8A92M | Meteor-2 3
Vostok 8A92M | Meteor-2 3

Agency: N/A

Status: Launch Successful

Launch date: Dec. 14, 1977, 9:30 a.m. UTC

Rocket: Vostok 8A92M

Launch pad: 43/4 (43R)

Location: Plesetsk Cosmodrome, Russian Federation

...

Latest news about this satellite

There are no fresh news available about this satellite. Check back as we update our databases every day.


Newsletter sign-up

Weekly statistics, charts and insights to help you stay on top of the space industry.